Theta_e
366 363 362 359 358 358 352 345 348 359 357 358 359 360 361 358 360 360 359 357 356 353
365 366 362 363 364 360 358 349 347 346 358 357 358 359 361 359 359 360 358 359 358 357
362 365 366 365 363 361 359 359 360 354 360 359 359 360 361 359 360 360 360 360 358 359
358 359 363 362 365 363 362 361 358 358 358 360 359 362 360 361 361 358 359 360 359 358
354 354 355 357 360 361 360 361 360 361 357 354 356 361 360 359 359 358 358 358 359 357
350 350 351 352 356 361 357 359 360 359 357 353 354 355 359 361 360 359 358 360 359 357
348 348 348 350 352 355 358 357 357 357 358 354 352 349 352 358 359 360 361 360 359 358
347 346 347 350 350 351 353 356 356 355 357 355 351 347 343 356 359 359 359 359 360 360
344 346 345 346 347 346 349 352 355 355 356 353 354 341 338 351 357 358 357 356 358 359
343 343 344 345 345 343 345 350 350 352 353 352 355 329 330 333 355 355 357 357 357 358
340 339 343 343 344 343 341 345 345 347 350 349 347 327 327 330 350 353 354 356 356 357
338 339 340 341 343 344 343 341 343 343 343 341 342 325 324 330 341 347 353 354 355 355
334 337 338 342 341 341 342 340 344 342 344 337 344 322 320 326 340 339 340 345 354 334
335 335 340 342 344 343 341 344 342 342 339 340 336 332 317 316 341 342 342 341 345 353
Wind_Speed
14 10 12 13 11 8 8 9 13 15 17 18 16 15 13 11 10 11 11 13 10 8
11 14 13 14 12 12 11 11 15 15 18 20 18 16 15 12 13 12 12 11 11 8
9 7 10 13 15 15 16 16 15 17 19 19 18 17 16 14 14 14 11 9 10 11
8 9 9 11 12 15 15 16 18 19 15 18 18 18 18 16 16 17 13 11 11 11
9 10 11 11 11 12 15 16 18 16 17 14 19 17 18 19 17 17 15 16 13 11
8 9 10 11 10 10 12 15 16 16 16 16 16 19 18 17 18 17 16 12 13 12
9 10 9 11 11 11 11 14 14 16 16 13 13 8 25 19 18 16 14 13 13 14
10 11 10 8 9 11 13 13 13 13 17 15 15 12 23 26 17 15 14 13 13 14
12 11 11 10 7 10 12 13 13 13 14 15 12 19 29 22 13 14 13 13 13 13
11 11 11 10 7 10 10 10 10 10 12 12 10 2 4 6 9 11 11 12 12 11
6 6 8 10 8 9 9 7 6 6 6 4 3 6 6 3 5 10 10 11 13 12
11 6 6 5 5 7 7 8 7 6 6 6 6 8 8 4 3 2 9 10 11 13
9 10 9 3 5 4 6 7 6 8 7 9 6 10 14 7 2 3 3 5 9 12
9 9 5 5 5 5 6 4 5 6 3 2 3 4 7 7 4 6 5 6 6 7
Wind_Direction
231 226 230 230 238 236 207 229 256 205 207 217 213 218 222 222 227 212 212 222 221 228
230 225 236 233 223 232 221 218 242 243 211 214 211 209 215 222 222 221 218 215 220 214
253 261 243 231 234 227 230 230 240 226 223 210 210 207 211 215 223 222 220 213 211 214
272 257 267 252 240 233 231 229 234 239 243 216 208 205 209 213 214 216 220 213 213 216
256 260 254 251 248 249 238 235 237 238 239 229 222 221 207 210 216 219 208 211 211 217
259 281 284 289 289 246 243 245 239 242 238 230 221 239 217 213 212 219 220 212 205 207
298 283 275 285 297 298 259 247 240 237 238 222 208 222 260 227 216 218 218 213 208 206
283 285 279 273 288 289 294 265 247 240 241 225 210 217 246 226 202 206 212 217 214 210
280 279 274 270 264 280 282 288 253 244 245 247 230 221 216 200 203 203 205 212 220 215
282 279 279 272 263 272 281 295 271 255 254 249 252 172 182 197 213 212 213 212 219 218
288 293 292 274 257 259 272 271 268 260 258 264 151 160 102 122 205 217 219 220 226 219
312 292 296 302 304 282 260 263 254 233 212 210 198 178 193 150 223 280 221 220 224 224
316 310 314 329 296 287 268 257 251 233 213 218 220 197 222 194 172 210 240 274 240 230
297 302 307 325 325 292 280 297 281 254 219 194 45 80 225 224 224 232 218 223 240 222